User: anonymous   Login
Location: Theydon Bois
(51.6750°N, 0.1050°E)
Time: 00:42:37
(UTC+01:00)
Language:

Cosmos 2154 Rocket - Orbit

View from above orbital plane
View from above orbital plane
View from above satellite
View from above satellite

Ground track
Ground track

The orbit data is extracted from the following two-line orbital elements,

1 21667U 91059B   17292.66495587 -.00000066  00000-0 -84994-4 0  9999
2 21667  82.9027 276.4276 0019374 267.0229 168.8685 13.75086730312804
Epoch (UTC): 19 October 2017 15:57:32
Eccentricity: 0.0019374
inclination: 82.9027°
perigee height: 967 km
apogee height: 995 km
right ascension of ascending node: 276.4276°
argument of perigee: 267.0229°
revolutions per day: 13.75086730
mean anomaly at epoch: 168.8685°
orbit number at epoch: 31280

The dashed part of the orbit path shows where the satellite is in the earth's shadow,  

DLR